User: anonymous   Login
Location: Ajisawe
(8.4333°N, 4.3833°E)
Time: 03:22:47
(UTC+00:00)
Language:

USA 234 - Orbit

View from above orbital plane
View from above orbital plane
View from above satellite
View from above satellite

Ground track
Ground track

The orbit data is extracted from the following two-line orbital elements,

1 38109U 12014A   20215.87487652 0.00000000  00000-0  00000-0 0    09
2 38109 122.9993 301.3396 0003379  81.2461 278.7539 13.41419921    03
Epoch (UTC): 02 August 2020 20:59:49
Eccentricity: 0.0003379
inclination: 122.9993°
perigee height: 1101 km
apogee height: 1106 km
right ascension of ascending node: 301.3396°
argument of perigee: 81.2461°
revolutions per day: 13.41419921
mean anomaly at epoch: 278.7539°
orbit number at epoch: 0

The dashed part of the orbit path shows where the satellite is in the earth's shadow,  

DLR